TimeEDT,TemperatureF,Dew PointF,Humidity,Sea Level PressureIn,VisibilityMPH,Wind Direction,Wind SpeedMPH,Gust SpeedMPH,PrecipitationIn,Events,Conditions,WindDirDegrees,DateUTC
12:15 AM,50.0,10.4,20,29.98,10.0,WNW,10.4,-,N/A,,Clear,290,2013-03-20 04:15:00
12:35 AM,50.0,10.4,20,29.98,10.0,WNW,9.2,-,N/A,,Clear,290,2013-03-20 04:35:00
12:55 AM,48.2,10.4,22,29.99,10.0,West,8.1,-,N/A,,Clear,280,2013-03-20 04:55:00
1:15 AM,46.4,10.4,23,29.99,10.0,WNW,6.9,-,N/A,,Clear,290,2013-03-20 05:15:00
1:35 AM,46.4,12.2,25,29.99,10.0,NW,4.6,-,N/A,,Clear,320,2013-03-20 05:35:00
1:55 AM,46.4,12.2,25,30.00,10.0,WNW,3.5,-,N/A,,Clear,290,2013-03-20 05:55:00
2:15 AM,46.4,12.2,25,30.00,10.0,WNW,3.5,-,N/A,,Clear,290,2013-03-20 06:15:00
2:35 AM,44.6,12.2,27,30.00,10.0,WNW,3.5,-,N/A,,Clear,300,2013-03-20 06:35:00
2:55 AM,44.6,15.8,31,30.00,10.0,Calm,Calm,-,N/A,,Clear,0,2013-03-20 06:55:00
3:15 AM,42.8,15.8,34,30.00,10.0,Calm,Calm,-,N/A,,Clear,0,2013-03-20 07:15:00
3:35 AM,42.8,14.0,31,29.99,10.0,NW,3.5,-,N/A,,Clear,310,2013-03-20 07:35:00
3:55 AM,42.8,12.2,29,29.99,10.0,NW,4.6,-,N/A,,Clear,310,2013-03-20 07:55:00
4:15 AM,42.8,12.2,29,29.99,10.0,Calm,Calm,-,N/A,,Clear,0,2013-03-20 08:15:00
4:35 AM,44.6,12.2,27,30.00,10.0,WNW,3.5,-,N/A,,Clear,300,2013-03-20 08:35:00
4:55 AM,42.8,14.0,31,30.00,10.0,WNW,3.5,-,N/A,,Clear,290,2013-03-20 08:55:00
5:15 AM,42.8,14.0,31,30.01,10.0,WNW,4.6,-,N/A,,Clear,290,2013-03-20 09:15:00
5:35 AM,42.8,14.0,31,30.01,10.0,WNW,3.5,-,N/A,,Clear,290,2013-03-20 09:35:00
5:55 AM,41.0,12.2,31,30.02,10.0,WNW,3.5,-,N/A,,Clear,300,2013-03-20 09:55:00
6:15 AM,39.2,15.8,39,30.02,10.0,Calm,Calm,-,N/A,,Clear,0,2013-03-20 10:15:00
6:35 AM,39.2,17.6,42,30.02,10.0,Calm,Calm,-,N/A,,Clear,0,2013-03-20 10:35:00
6:55 AM,37.4,19.4,48,30.04,10.0,WNW,3.5,-,N/A,,Clear,290,2013-03-20 10:55:00
7:15 AM,39.2,15.8,39,30.04,10.0,WNW,3.5,-,N/A,,Clear,300,2013-03-20 11:15:00
7:35 AM,37.4,19.4,48,30.04,10.0,Calm,Calm,-,N/A,,Clear,0,2013-03-20 11:35:00
7:55 AM,37.4,26.6,65,30.04,10.0,WNW,3.5,-,N/A,,Clear,290,2013-03-20 11:55:00
8:15 AM,39.2,21.2,49,30.05,10.0,WNW,4.6,-,N/A,,Clear,290,2013-03-20 12:15:00
8:35 AM,41.0,17.6,39,30.06,10.0,WNW,4.6,-,N/A,,Clear,300,2013-03-20 12:35:00
8:55 AM,44.6,17.6,34,30.07,10.0,WNW,4.6,-,N/A,,Clear,290,2013-03-20 12:55:00
9:15 AM,46.4,15.8,29,30.07,10.0,NW,5.8,-,N/A,,Clear,320,2013-03-20 13:15:00
9:35 AM,46.4,12.2,25,30.09,10.0,NW,9.2,-,N/A,,Clear,310,2013-03-20 13:35:00
9:55 AM,48.2,12.2,24,30.09,10.0,WNW,8.1,-,N/A,,Clear,300,2013-03-20 13:55:00
10:15 AM,48.2,12.2,24,30.09,10.0,WNW,6.9,-,N/A,,Clear,290,2013-03-20 14:15:00
10:55 AM,48.2,10.4,22,30.09,10.0,WNW,3.5,-,N/A,,Clear,290,2013-03-20 14:55:00
11:15 AM,50.0,12.2,22,30.08,10.0,SW,3.5,-,N/A,,Clear,220,2013-03-20 15:15:00
11:55 AM,51.8,12.2,21,30.06,10.0,WSW,6.9,-,N/A,,Clear,250,2013-03-20 15:55:00
12:15 PM,51.8,14.0,22,30.06,10.0,SSW,3.5,-,N/A,,Clear,200,2013-03-20 16:15:00
12:35 PM,53.6,15.8,22,30.05,10.0,WSW,6.9,-,N/A,,Clear,250,2013-03-20 16:35:00
12:55 PM,53.6,15.8,22,30.04,10.0,WSW,9.2,18.4,N/A,,Clear,240,2013-03-20 16:55:00
1:15 PM,53.6,14.0,21,30.03,10.0,SSW,6.9,-,N/A,,Clear,210,2013-03-20 17:15:00
1:35 PM,53.6,15.8,22,30.02,10.0,SW,5.8,9.2,N/A,,Clear,220,2013-03-20 17:35:00
1:55 PM,53.6,15.8,22,30.00,10.0,SW,10.4,-,N/A,,Clear,230,2013-03-20 17:55:00
2:15 PM,53.6,15.8,22,29.99,10.0,WSW,5.8,-,N/A,,Clear,250,2013-03-20 18:15:00
2:35 PM,53.6,14.0,21,29.97,10.0,WSW,8.1,-,N/A,,Clear,240,2013-03-20 18:35:00
2:55 PM,53.6,12.2,19,29.96,10.0,WSW,6.9,-,N/A,,Clear,250,2013-03-20 18:55:00
3:15 PM,53.6,14.0,21,29.94,10.0,SW,8.1,-,N/A,,Clear,230,2013-03-20 19:15:00
3:35 PM,53.6,12.2,19,29.94,10.0,SSW,9.2,-,N/A,,Clear,210,2013-03-20 19:35:00
3:55 PM,53.6,12.2,19,29.93,10.0,WSW,9.2,-,N/A,,Clear,240,2013-03-20 19:55:00
4:15 PM,55.4,12.2,18,29.91,10.0,SW,10.4,-,N/A,,Clear,230,2013-03-20 20:15:00
4:35 PM,55.4,12.2,18,29.90,10.0,SW,9.2,-,N/A,,Clear,230,2013-03-20 20:35:00
4:55 PM,55.4,15.8,21,29.90,10.0,SW,6.9,-,N/A,,Clear,220,2013-03-20 20:55:00
5:15 PM,55.4,14.0,20,29.89,10.0,SSW,8.1,16.1,N/A,,Clear,200,2013-03-20 21:15:00
5:35 PM,55.4,12.2,18,29.88,10.0,SW,8.1,-,N/A,,Clear,230,2013-03-20 21:35:00
5:55 PM,53.6,12.2,19,29.87,10.0,SSW,8.1,-,N/A,,Clear,210,2013-03-20 21:55:00
6:15 PM,53.6,14.0,21,29.87,10.0,SW,5.8,-,N/A,,Clear,220,2013-03-20 22:15:00
6:35 PM,53.6,15.8,22,29.88,10.0,SW,6.9,-,N/A,,Clear,220,2013-03-20 22:35:00
6:55 PM,51.8,17.6,26,29.88,10.0,South,10.4,-,N/A,,Clear,190,2013-03-20 22:55:00
7:15 PM,51.8,17.6,26,29.88,10.0,South,9.2,-,N/A,,Clear,190,2013-03-20 23:15:00
7:35 PM,48.2,17.6,30,29.88,10.0,South,5.8,-,N/A,,Clear,180,2013-03-20 23:35:00
7:55 PM,46.4,19.4,34,29.87,10.0,South,5.8,-,N/A,,Clear,170,2013-03-20 23:55:00
8:15 PM,46.4,19.4,34,29.87,10.0,South,5.8,-,N/A,,Clear,170,2013-03-21 00:15:00
8:35 PM,44.6,19.4,37,29.86,10.0,SSE,3.5,-,N/A,,Clear,160,2013-03-21 00:35:00
8:55 PM,44.6,19.4,37,29.86,10.0,SSE,3.5,-,N/A,,Clear,160,2013-03-21 00:55:00
9:15 PM,44.6,21.2,39,29.86,10.0,South,3.5,-,N/A,,Clear,170,2013-03-21 01:15:00
9:35 PM,44.6,21.2,39,29.85,10.0,South,3.5,-,N/A,,Clear,170,2013-03-21 01:35:00
9:55 PM,41.0,24.8,53,29.84,10.0,South,5.8,-,N/A,,Clear,170,2013-03-21 01:55:00
10:15 PM,42.8,21.2,42,29.84,10.0,SSE,4.6,-,N/A,,Clear,160,2013-03-21 02:15:00
10:35 PM,42.8,21.2,42,29.84,10.0,SSE,3.5,-,N/A,,Clear,160,2013-03-21 02:35:00
10:55 PM,41.0,24.8,53,29.83,10.0,South,3.5,-,N/A,,Clear,170,2013-03-21 02:55:00
11:15 PM,41.0,26.6,57,29.83,10.0,South,3.5,-,N/A,,Clear,170,2013-03-21 03:15:00
11:35 PM,37.4,26.6,65,29.82,10.0,Calm,Calm,-,N/A,,Clear,0,2013-03-21 03:35:00
11:55 PM,39.2,26.6,61,29.80,10.0,South,3.5,-,N/A,,Clear,170,2013-03-21 03:55:00